Showing default

TIANLIAN-2 05, 63662

Orbit data source: Space-Track

TIANLIAN-2 05, 63662 is a payload satellite owned by CAST (CN) in GEO that was launched on Sun, 27 Apr 2025 UTC via a CHANG ZHENG 3B launch vehicle from the Xichang Space Center, China (XSC). Payload-class satellites include a variety of spacecraft equipped with specific instruments for various scientific and technological missions. These include communications satellites like Starlink; space stations such as the ISS; scientific satellites like the Hubble; Earth observation satellites from companies like Planet Labs, Umbra, and HawkEye 360; GPS; miniature CubeSats for education and research; and military/defense satellites.

Not visible in the next 10 days
Identifier
63662, 2025-084A
Orbit
GEO
Country
Flag of CNCN / PRC
Related business
None
Manufacturer
CAST
Mission
Operational Civil Communications
Bus & Motor
DFH-4, FY-25
Mass
~5,000 kg wet, ~2,000 kg dry
Launch date (UTC)
2025-04-27 (5 months ago)
Launch vehicle
CHANG ZHENG 3B
Launch site
Xichang Space Center, China (XSC)
Object type
Payload
Rocket body
Debris
Shape & HBR
Box + 2 Pan + 1 Dish, 10.0 m
Radar Cross Section
40.604 m², Large (>1 m²)

Expand to show TLE details & history
Last TLE update: 12 hours ago

TLE from 12 hours ago
0 TIANLIAN-2 05
1 63662U 25084A   25258.80271694  .00000103  00000-0  00000-0 0  9995
2 63662   5.1509 282.8672 0000818 319.4629  61.9873  1.00272000  1637
Epoch: 2025-09-15T19:15Z
TLE epoch observation values (Epoch: 2025-09-15T19:15:54.743Z)
Latitude
1.89041°
Longitude
20.27493°
Altitude
35,784.202 km
Speed
3.075 km/s
True Right ascension
20h 17m 01s
True Declination
1° 53' 19"
Sunlit
Object was in daylight at epoch
Visualization orbit readout
Latitude
Unknown
Longitude
Unknown
Altitude
Unknown
Speed
Unknown
Apparent Right ascension
Unknown
Apparent Declination
Unknown
Sunlit
N/A
Visualization observer readout
Local Sidereal Time
23:31:37
Azimuth
Unknown
Elevation
Unknown
Doppler factor
Unknown
Orbital elements
Apogee altitude
35,791.042 km
Perigee altitude
35,784.143 km
Semi-major axis
42,165.729 km
Eccentricity
0.00008
Inclination
5.1509°
RAAN
282.8672°
Arg. of periapsis
319.4629°
True anomaly
61.99558°
Mean anomaly
61.9873°
Eccentric anomaly
61.99144°
Mean motion
0.25067 °/min
Orbital period
1,436.15 mins
BSTAR
0
Loading maneuver chart data...
Computing Atmospheric mass density...
Loading historical data...
Loading historical data...
Loading historical data...
Loading historical data...
Loading historical data...
Loading historical data...
Loading historical data...
Other satellites on launch #84 in the year 2025 (2025-04-27 UTC)

Documentation

Showing up to 5 results
|